SL-8 DEB, 1477

Orbit data source: Space-Track

SL-8 DEB, 1477 is space debris in LEO originally from a launch on Mon, 15 Mar 1965 UTC launched from the Tyuratam Missile And Space Complex (TTMTR). Debris objects in space refer to the collection of defunct objects orbiting the Earth. Examples of debris include non-operational satellites, rocket bodies, and fragments generated from explosions, collisions, or faulty payload assembly.

Loading next visibility...
Identifier
1477, 1965-020BB
Orbit
LEO
Country
Flag of CISCIS
Related business
Manufacturer
Unknown
Mission
Spacecraft
Bus & Motor
Unknown
Mass
Unknown
Launch date (UTC)
1965-03-15 (61 years ago)
Launch vehicle
Unknown
Launch site
Tyuratam Missile And Space Complex (TTMTR)
Object type
Payload
Rocket body
Debris
Shape & HBR
Unknown shape, 0.2 m
Radar Cross Section
Medium (>0.1 m² and <1 m²)

Expand to show TLE details & history
Last TLE update: 12 hours ago

TLE from 12 hours ago
0 SL-8 DEB
1 01477U 65020BB  25291.85273624  .00000753  00000-0  13016-2 0  9996
2 01477  55.4931 257.7057 0583768 293.9417  60.1431 12.99273350846849
Epoch: 2025-10-18T20:27Z
TLE epoch observation values (Epoch: 2025-10-18T20:27:56.411Z)
Latitude
0.00001°
Longitude
-76.85714°
Altitude
1,064.299 km
Speed
7.417 km/s
True Right ascension
17h 10m 49s
True Declination
0° 00' 00"
Sunlit
Object was in daylight at epoch
Visualization orbit readout
Latitude
Unknown
Longitude
Unknown
Altitude
Unknown
Speed
Unknown
Apparent Right ascension
Unknown
Apparent Declination
Unknown
Sunlit
N/A
Visualization observer readout
Local Sidereal Time
03:48:00
Azimuth
Unknown
Elevation
Unknown
Doppler factor
Unknown
Orbital elements
Apogee altitude
1,711.008 km
Perigee altitude
818.663 km
Semi-major axis
7,642.972 km
Eccentricity
0.05838
Inclination
55.4931°
RAAN
257.7057°
Arg. of periapsis
293.9417°
True anomaly
66.15198°
Mean anomaly
60.1431°
Eccentric anomaly
63.12664°
Mean motion
3.24825 °/min
Orbital period
110.83 mins
BSTAR
0.0013016
Loading maneuver chart data...
Computing Atmospheric mass density...

Documentation

Showing up to 5 results
|